User: anonymous   Login
Location: Dziadowski
(50.3833°N, 20.0333°E)
Time: 18:05:15
(UTC+00:00)
Language:

Lacrosse 5 rocket - Orbit

View from above orbital plane
View from above orbital plane
View from above satellite
View from above satellite

Ground track
Ground track

The orbit is defined by the following mean orbital elements,

1 28647U          26067.81593419 +.00000000 +00000-0 +49616-3 0 00000
2 28647  56.9971 250.4007 0061657  18.4338 341.8931 15.42636767    02
Epoch (UTC): 08 March 2026 19:34:56
Eccentricity: 0.0061657
inclination: 56.9971°
perigee height: 396 km
apogee height: 480 km
right ascension of ascending node: 250.4007°
argument of perigee: 18.4338°
revolutions per day: 15.42636767
mean anomaly at epoch: 341.8931°

The dashed part of the orbit path shows where the satellite is in the earth's shadow,  

DLR